This is the latest recevied weather packets stored in our database for station/object KW4UJ. If no packets are shown the sender has not sent any weather packets the latest 10 day(s).
| Time | Temp. | Humidity | Pressure | Rain* | Wind** | Luminosity | Snow |
|---|---|---|---|---|---|---|---|
| 1787871851 | 27.78° C | 71% | 1013.3 hPa | 0 mm | - | 6 W/m² | - |
| 1787871546 | 27.78° C | 71% | 1013.5 hPa | 0 mm | - | 6 W/m² | - |
| 1787871242 | 27.78° C | 72% | 1013.4 hPa | 0 mm | - | 9 W/m² | - |
| 1787870937 | 27.78° C | 71% | 1013.3 hPa | 0 mm | - | 16 W/m² | - |
| 1787870636 | 27.78° C | 71% | 1013.5 hPa | 0 mm | - | 21 W/m² | - |
| 1787870332 | 27.78° C | 72% | 1013.6 hPa | 0 mm | - | 25 W/m² | - |
| 1787870027 | 27.78° C | 72% | 1013.5 hPa | 0 mm | - | 29 W/m² | - |
| 1787869726 | 27.78° C | 73% | 1013.4 hPa | 0 mm | - | 32 W/m² | - |
| 1787869426 | 27.78° C | 73% | 1013.2 hPa | 0 mm | - | 35 W/m² | - |
| 1787869120 | 28.33° C | 74% | 1013.1 hPa | 0 mm | - | 36 W/m² | - |
| 1787868819 | 28.33° C | 73% | 1012.9 hPa | 0 mm | - | 41 W/m² | - |
| 1787868518 | 28.33° C | 73% | 1013.3 hPa | 0 mm | - | 49 W/m² | - |
| 1787868217 | 28.33° C | 73% | 1013.1 hPa | 0 mm | - | 56 W/m² | - |
| 1787867913 | 28.33° C | 73% | 1012.9 hPa | 0 mm | - | 63 W/m² | - |
| 1787867609 | 28.33° C | 73% | 1012.9 hPa | 0 mm | - | 71 W/m² | - |
| 1787867308 | 28.89° C | 72% | 1012.7 hPa | 0 mm | - | 71 W/m² | - |
| 1787867006 | 28.89° C | 71% | 1012.9 hPa | 0 mm | - | 74 W/m² | - |
| 1787866699 | 28.89° C | 70% | 1012.8 hPa | 0 mm | - | 95 W/m² | - |
| 1787866398 | 28.89° C | 69% | 1012.6 hPa | 0 mm | - | 109 W/m² | - |
| 1787866093 | 28.89° C | 69% | 1012.5 hPa | 0 mm | - | 125 W/m² | - |
| 1787865788 | 28.89° C | 68% | 1012.6 hPa | 0 mm | - | 124 W/m² | - |
| 1787865483 | 29.44° C | 67% | 1012.6 hPa | 0 mm | - | 128 W/m² | - |
| 1787865178 | 29.44° C | 67% | 1012.3 hPa | 0 mm | - | 165 W/m² | - |
| 1787864875 | 30° C | 67% | 1012.4 hPa | 0 mm | - | 145 W/m² | - |
| 1787864574 | 30° C | 67% | 1012.6 hPa | 0 mm | - | 262 W/m² | - |
* Rain latest hour (hover to see other rain measurements)
** Current wind speed in m/s (hover to see current wind gust speed)